Regional Weather Roundup
Issued by NWS

Home | Current Version | Previous Version | Text Only | Print | Product List | Glossary On
Versions: 1 2 3 4 5 6 7 8 9 10 11 12 13 14 15 16 17 18 19 20 21 22 23 24 25 26 27 28 29 30 31 32 33 34 35 36 37 38 39 40 41 42 43 44 45 46 47 48 49 50
000
ASUS44 KOUN 290800
RWROK

WEATHER ROUNDUP FOR OKLAHOMA
NATIONAL WEATHER SERVICE NORMAN OK
300 AM CDT FRI AUG 29 2014

NOTE: "FAIR" INDICATES FEW OR NO CLOUDS BELOW 12,000 FEET WITH NO
      SIGNIFICANT WEATHER AND/OR OBSTRUCTIONS TO VISIBILITY.

OKZ001>007-009>012-014-015-017-290900-
NORTHWEST OKLAHOMA AND THE PANHANDLE

CITY           SKY/WX    TMP DP  RH WIND       PRES   REMARKS
GAGE           MOCLDY    66  64  93 CALM      29.94F
$$

OKZ016-021>023-033>039-044-045-290900-
SOUTHWEST OKLAHOMA

CITY           SKY/WX    TMP DP  RH WIND       PRES   REMARKS
LAWTON/REGL    CLOUDY    69  65  86 E3        29.89S
FREDERICK      CLOUDY    69  66  90 E5        29.87F
CLINTON          N/A     66  64  93 NW7         N/A
HOBART         CLOUDY    66  65  96 W6        29.91F
$$

OKZ018>020-024>031-290900-
CENTRAL OKLAHOMA

CITY           SKY/WX    TMP DP  RH WIND       PRES   REMARKS
OKLAHOMA CITY  CLOUDY    70  64  81 NW13      29.91R
OKC/WILEY POST CLOUDY    70  66  87 W6        29.91R
OKC/TINKER AFB CLOUDY    68  65  90 W16       29.89R
STILLWATER     LGT RAIN  71  69  93 SE3       29.90R
GUTHRIE        CLOUDY    71  65  81 S5        29.90S
$$

OKZ008-013-054>072-290900-
NORTHEAST OKLAHOMA

CITY           SKY/WX    TMP DP  RH WIND       PRES   REMARKS
TULSA          PTCLDY    79  67  66 S8        29.85F
TULSA/JONES    MOCLDY    76  67  73 CALM      29.86F
PONCA CITY     CLOUDY    71  68  90 S3        29.87
BARTLESVILLE   MOCLDY    68  64  87 SW3       29.87F
MUSKOGEE       MOCLDY    77  68  73 SW7       29.89S
$$

OKZ032-040>043-046>053-073>077-290900-
SOUTH CENTRAL/SOUTHEAST OKLAHOMA

CITY           SKY/WX    TMP DP  RH WIND       PRES   REMARKS
MCALESTER      LGT RAIN  74  68  81 W9        29.92R
$$



USA.gov is the U.S. government's official web portal to all federal, state and local government web resources and services.